Location: Unspecified
(0.0000°N, 0.0000°E)
Time: 02:20:42
(UTC+00:00)

Courier 1B - All Passes

Search period start: 30 May 2015 00:00
Search period end: 09 June 2015 00:00
Orbit: 963 x 1209 km, 28.3° (Epoch: 29 May)

Date Brightness Start Highest point End Pass type
(mag) Time Alt. Az. Time Alt. Az. Time Alt. Az.
30 May - 01:49:57 10° WNW 01:57:25 90° SW 02:04:23 10° ESE night (unlit)
30 May - 03:45:57 10° W 03:51:43 26° SSW 03:57:08 10° SSE visible
30 May - 11:30:06 10° SSW 11:34:59 22° SSE 11:40:12 10° ESE daylight
30 May - 13:22:29 10° SW 13:29:20 77° SSE 13:36:38 10° ENE daylight
30 May - 15:17:27 10° W 15:23:46 33° NNW 15:30:19 10° NE daylight
30 May - 17:16:54 10° NW 17:19:14 11° NNW 17:21:20 10° N daylight
30 May - 23:03:08 10° NNW 23:08:42 22° NNE 23:14:17 10° ENE visible
31 May - 00:56:02 10° NW 01:03:32 67° NNE 01:10:37 10° ESE night (unlit)
31 May - 02:51:13 10° W 02:57:49 36° SSW 03:04:01 10° SE visible
31 May - 04:51:30 10° SSW 04:52:44 10° SSW 04:53:41 10° SSW visible
31 May - 10:37:25 10° S 10:41:01 15° SSE 10:44:55 10° ESE daylight
31 May - 12:29:01 10° SW 12:35:32 55° SSE 12:42:28 10° ENE daylight
31 May - 14:23:13 10° W 14:29:47 44° NNW 14:36:43 10° NE daylight
31 May - 16:20:58 10° NW 16:24:55 15° NNW 16:28:43 10° N daylight
31 May - 22:09:54 10° NNW 22:14:28 17° NNE 22:19:11 10° ENE visible
01 Jun - 00:02:13 10° NW 00:09:35 49° NNE 00:16:37 10° ESE night (unlit)
01 Jun - 01:56:44 10° WNW 02:03:57 51° SSW 02:10:43 10° SE night (unlit)
01 Jun - 03:54:42 10° WSW 03:58:37 15° SSW 04:02:12 10° S visible
01 Jun - 09:45:34 10° S 09:46:58 11° SSE 09:48:38 10° SE daylight
01 Jun - 11:35:41 10° SW 11:41:44 38° SSE 11:48:07 10° E daylight
01 Jun - 13:29:13 10° WSW 13:35:54 60° NNW 13:43:00 10° NE daylight
01 Jun - 15:25:47 10° WNW 15:30:42 19° NNW 15:35:36 10° NNE daylight
01 Jun - 21:17:01 10° N 21:20:09 13° NNE 21:23:31 10° NE visible
01 Jun - 23:08:34 10° NW 23:15:34 37° NNE 23:22:23 10° E visible
02 Jun - 01:02:28 10° WNW 01:10:04 71° SSW 01:17:13 10° SE night (unlit)
02 Jun - 02:59:14 10° WSW 03:04:35 21° SSW 03:09:33 10° SSE visible
02 Jun - 10:42:32 10° SSW 10:47:54 27° SSE 10:53:33 10° E daylight
02 Jun - 12:35:25 10° WSW 12:42:05 83° NNW 12:49:10 10° ENE daylight
02 Jun - 14:31:02 10° WNW 14:36:36 25° NNW 14:42:17 10° NNE daylight
02 Jun - 22:15:02 10° NNW 22:21:27 28° NNE 22:27:51 10° E visible
03 Jun - 00:08:22 10° WNW 00:16:09 86° NNE 00:23:32 10° ESE night (unlit)
03 Jun - 02:04:13 10° W 02:10:35 29° SSW 02:16:33 10° SSE night (unlit)
03 Jun - 09:49:34 10° SSW 09:54:01 20° SSE 09:58:42 10° ESE daylight
03 Jun - 11:41:48 10° SW 11:48:20 72° SSE 11:55:12 10° ENE daylight
03 Jun - 13:36:36 10° W 13:42:36 33° NNW 13:48:51 10° NE daylight
03 Jun - 15:35:59 10° NNW 15:37:54 11° NNW 15:39:34 10° N daylight
03 Jun - 21:21:42 10° NNW 21:27:16 21° NNE 21:32:58 10° ENE visible
03 Jun - 23:14:27 10° NW 23:22:12 64° NNE 23:29:39 10° ESE night (unlit)
04 Jun - 01:09:31 10° W 01:16:37 40° SSW 01:23:19 10° SE night (unlit)
04 Jun - 03:08:43 10° SW 03:11:36 12° SSW 03:14:09 10° S visible
04 Jun - 08:56:56 10° S 09:00:03 14° SSE 09:03:24 10° SE daylight
04 Jun - 10:48:21 10° SW 10:54:36 50° SSE 11:01:05 10° ENE daylight
04 Jun - 12:42:26 10° W 12:48:43 45° NNW 12:55:18 10° NE daylight
04 Jun - 14:40:02 10° NW 14:43:40 14° NNW 14:47:08 10° N daylight
04 Jun - 20:28:36 10° NNW 20:33:01 16° NNE 20:37:40 10° ENE visible
04 Jun - 22:20:43 10° NW 22:28:11 47° NNE 22:35:31 10° E visible
05 Jun - 00:15:04 10° WNW 00:22:40 56° SSW 00:29:54 10° SE night (unlit)
05 Jun - 02:12:41 10° WSW 02:17:27 17° SSW 02:21:50 10° SSE night (unlit)
05 Jun - 09:55:01 10° SW 10:00:50 35° SSE 10:06:48 10° E daylight
05 Jun - 11:48:28 10° WSW 11:54:55 62° NNW 12:01:39 10° NE daylight
05 Jun - 13:44:55 10° WNW 13:49:32 19° NNW 13:54:08 10° NNE daylight
05 Jun - 19:35:59 10° N 19:38:40 12° NNE 19:41:40 10° NE visible
05 Jun - 21:27:08 10° NW 21:34:06 35° NNE 21:41:07 10° E visible
05 Jun - 23:20:51 10° WNW 23:28:43 76° SSW 23:36:17 10° SE night (unlit)
06 Jun - 01:17:22 10° WSW 01:23:21 24° SSW 01:28:57 10° SSE night (unlit)
06 Jun - 09:01:51 10° SSW 09:07:01 25° SSE 09:12:18 10° E daylight
06 Jun - 10:54:41 10° WSW 11:01:11 87° NNW 11:07:54 10° ENE daylight
06 Jun - 12:50:12 10° W 12:55:31 25° NNW 13:00:55 10° NNE daylight
06 Jun - 20:33:43 10° NNW 20:39:59 27° NNE 20:46:25 10° E visible
06 Jun - 22:26:50 10° WNW 22:34:44 81° NNE 22:42:28 10° ESE visible
07 Jun - 00:22:26 10° W 00:29:17 32° SSW 00:35:47 10° SSE night (unlit)
07 Jun - 02:23:45 10° SSW 02:24:35 10° SSW 02:25:07 10° SSW night (unlit)
07 Jun - 08:08:50 10° SSW 08:13:07 18° SSE 08:17:29 10° ESE daylight
07 Jun - 10:01:03 10° SW 10:07:29 66° SSE 10:14:01 10° ENE daylight
07 Jun - 11:55:48 10° W 12:01:37 33° NNW 12:07:34 10° NE daylight
07 Jun - 13:55:30 10° NNW 13:56:42 10° NNW 13:57:41 10° N daylight
07 Jun - 19:40:31 10° NNW 19:45:47 20° NNE 19:51:20 10° ENE visible
07 Jun - 21:33:00 10° NW 21:40:43 61° NNE 21:48:25 10° ESE visible
07 Jun - 23:27:49 10° W 23:35:15 44° SSW 23:42:25 10° SE night (unlit)
08 Jun - 01:26:22 10° SW 01:30:19 14° SSW 01:33:55 10° S night (unlit)
08 Jun - 07:16:08 10° S 07:19:06 13° SSE 07:22:13 10° SE daylight
08 Jun - 09:07:34 10° SW 09:13:46 46° SSE 09:19:58 10° ENE daylight
08 Jun - 11:01:37 10° WSW 11:07:49 46° NNW 11:14:07 10° NE daylight
08 Jun - 12:59:13 10° NW 13:02:33 14° NNW 13:05:44 10° N daylight
08 Jun - 18:47:38 10° N 18:51:32 15° NNE 18:55:46 10° NE visible
08 Jun - 20:39:22 10° NW 20:46:41 45° NNE 20:54:08 10° E visible
08 Jun - 22:33:29 10° WNW 22:41:14 60° SSW 22:48:51 10° SE visible
